Location: Bremen
(53.0793°N, 8.8017°E)
Time: 20:41:16
(UTC+02:00)

BlueWalker 3 - Pass Details

Date: 27 February 2024
Orbit: 485 x 495 km, 53.2° (Epoch: 20 April)

Event Time Altitude Azimuth Distance (km) Brightness Sun altitude
Rises 19:55:15 0° 282° (WNW) 2,564 7.3 -18.3°
Reaches altitude 10° 19:57:26 10° 280° (W) 1,679 5.9 -18.6°
Maximum altitude 20:01:13 72° 197° (SSW) 515 1.9 -19.1°
Enters shadow 20:01:52 56° 135° (SE) 585 1.9 -19.2°
